EHI
2 1 1 2 1 0 0 0 1 1 1 0 0 0 0 0 0 0 0 0 1 2 1 0 0 0 1 1 2 2 2 2 1 1 2 1 0 1 2 1 0 1 3
3 1 1 2 1 0 0 1 2 1 0 0 0 0 0 0 0 0 0 0 1 2 1 0 0 1 1 1 1 1 2 2 1 2 2 1 1 2 2 1 1 2 3
3 1 0 1 1 0 0 1 2 1 0 0 0 0 0 0 0 0 0 0 1 2 1 1 1 2 2 1 0 1 2 2 1 2 2 1 1 2 2 1 1 2 3
3 2 1 0 0 0 0 1 1 0 1 1 1 1 0 0 0 0 0 0 1 2 2 1 2 3 2 1 0 1 2 1 1 2 2 0 0 1 1 0 1 2 3
3 3 2 0 0 1 0 0 0 1 2 2 2 1 0 0 0 0 0 0 1 2 2 1 1 2 2 1 0 1 1 1 2 2 1 1 0 0 0 0 1 2 3
4 3 2 1 0 0 0 0 0 1 2 2 2 1 0 0 0 0 0 0 1 1 1 1 0 1 1 1 0 0 0 1 2 1 1 1 2 1 0 0 1 1 1
4 3 3 2 1 1 1 1 0 0 1 1 1 0 0 0 0 0 0 0 1 1 1 1 1 0 0 0 0 0 0 1 1 1 1 2 3 1 0 0 0 0 0
4 4 4 4 3 3 3 2 1 0 1 2 2 1 0 0 0 0 0 0 0 1 1 1 1 0 0 0 0 0 1 2 2 1 1 2 2 1 0 0 0 0 0
3 3 3 3 4 5 4 3 1 1 3 5 5 3 2 1 0 0 0 0 0 0 0 1 1 0 0 0 0 1 3 5 4 1 0 2 3 2 0 0 0 0 0
1 2 3 4 4 5 4 4 4 3 3 4 5 4 2 1 0 0 0 0 0 0 0 0 0 0 0 0 0 2 4 4 2 1 1 4 5 3 1 1 1 0 0
2 2 3 4 4 3 4 5 6 4 3 3 3 3 2 1 1 0 0 1 1 1 1 1 1 1 1 2 2 2 2 1 0 0 2 6 8 6 3 2 1 0 0
3 3 3 4 3 2 2 4 4 3 3 2 3 4 3 2 1 0 1 3 3 3 3 3 2 2 2 2 2 2 2 1 0 0 4 10 13 10 6 2 1 0 0
2 2 2 3 3 3 2 1 1 2 3 3 4 6 5 3 1 1 2 4 4 4 4 4 4 2 1 1 1 1 1 1 0 1 6 15 17 14 9 4 1 0 0
2 1 1 2 4 5 4 2 1 1 2 3 4 6 5 2 2 3 3 3 4 4 4 4 4 2 1 0 0 0 0 0 1 2 8 16 18 15 12 8 3 1 1
4 2 1 2 5 8 9 7 3 1 1 1 3 5 5 4 3 3 3 3 2 2 3 4 2 2 1 1 0 0 0 0 1 2 7 13 15 14 14 11 6 4 3
5 3 2 4 8 11 12 10 5 2 2 2 3 5 5 5 6 6 5 3 3 3 4 3 2 1 2 1 1 2 2 2 3 3 5 9 12 12 12 11 7 5 6
8 6 4 7 11 13 13 10 6 3 3 4 5 6 6 5 7 8 6 4 4 5 6 4 3 2 2 2 2 4 4 5 6 5 4 6 7 8 9 9 7 7 9
12 10 8 10 14 15 13 10 6 5 6 6 6 6 6 5 6 7 6 5 5 6 7 5 3 3 3 3 5 6 6 6 6 5 4 4 5 6 7 8 8 9 11
16 15 13 13 15 16 13 10 8 8 9 7 6 6 7 6 5 5 5 5 5 6 6 4 4 4 5 5 5 5 5 4 5 5 4 4 5 6 7 8 9 11 12
25 24 20 17 17 17 16 14 11 9 8 8 8 8 8 6 5 5 5 5 5 5 5 4 5 6 6 5 5 5 4 4 5 6 5 5 6 7 7 8 9 10 11
33 32 28 22 21 20 19 18 14 9 8 10 11 11 8 5 5 6 6 5 5 6 7 6 6 7 7 6 5 5 4 5 6 6 6 6 6 6 6 6 9 10 11
37 37 33 27 24 21 20 18 13 9 8 10 13 13 9 5 5 7 6 6 5 7 9 7 6 6 6 5 5 4 3 4 5 5 6 7 6 6 5 5 7 9 10
39 37 34 32 28 20 17 15 12 8 7 8 14 16 12 9 8 8 7 7 7 8 9 9 8 7 6 6 4 3 2 2 3 4 5 6 7 6 5 3 4 7 8
38 36 38 38 31 19 13 12 10 8 6 7 13 17 17 15 13 11 10 10 10 9 9 10 9 8 8 6 5 3 2 3 4 4 5 6 7 6 4 2 4 7 8
34 35 40 41 33 20 12 10 9 8 7 8 11 14 18 20 18 15 13 13 12 11 10 10 9 9 8 6 5 3 2 4 5 5 5 5 6 6 4 3 5 7 7
31 33 39 41 36 24 14 9 9 8 7 7 9 12 17 21 20 17 14 12 12 12 11 10 9 9 8 6 5 4 2 3 4 4 4 5 6 6 5 5 5 6 5
Wind_Speed
8 9 10 11 12 12 12 13 13 14 14 14 14 15 15 14 14 14 14 14 14 13 13 12 12 12 12 13 13 13 13 13 14 15 15 15 14 12 12 12 12 11 13
10 10 11 12 12 12 12 13 13 14 14 14 14 14 14 14 14 14 13 14 14 13 12 12 12 12 12 12 12 12 12 12 12 13 14 13 12 11 10 10 11 9 13
10 9 10 11 12 13 13 13 13 13 13 13 13 13 14 14 14 14 13 13 13 12 11 11 11 12 12 11 11 10 10 10 10 11 12 9 10 11 11 13 14 13 12
11 9 11 12 12 13 13 12 12 13 13 12 13 13 13 13 13 13 13 13 12 11 11 10 11 12 12 11 10 9 8 8 8 9 6 7 8 11 12 12 13 12 12
11 11 11 12 12 12 12 12 12 12 12 12 12 12 13 13 13 13 13 12 11 11 10 10 11 12 12 10 9 7 6 5 5 6 5 7 8 11 12 12 11 11 11
12 12 12 13 13 12 12 11 11 11 12 12 12 12 12 13 13 12 12 12 11 10 10 11 11 12 10 9 7 5 3 3 4 3 5 9 8 10 11 11 11 11 10
13 12 12 13 13 12 11 11 11 11 11 12 12 12 12 12 12 12 12 11 11 11 10 11 11 10 9 7 5 3 2 3 4 2 5 8 9 11 11 11 10 10 10
13 13 12 13 13 11 11 11 11 10 11 11 11 11 11 11 12 11 11 11 11 11 10 10 10 9 8 6 4 1 2 5 1 4 8 9 11 11 11 10 10 10 10
12 13 11 11 10 11 11 10 10 10 10 9 9 10 11 11 11 11 10 10 11 11 10 9 9 8 7 5 3 2 3 4 3 2 8 8 11 12 11 10 10 10 9
9 10 10 11 9 9 9 10 10 10 9 8 8 9 10 11 11 11 10 10 10 10 9 8 8 7 5 4 3 3 4 4 2 3 5 8 13 12 11 10 10 9 9
8 7 8 10 9 8 9 10 9 9 8 8 7 8 7 6 8 8 10 11 9 9 8 8 7 6 4 4 4 4 4 2 2 4 5 12 12 12 11 10 9 9 8
7 7 7 7 6 5 6 6 5 5 5 3 3 5 4 3 3 7 10 10 9 8 7 7 6 6 5 3 5 4 3 2 2 4 7 14 12 12 11 9 9 8 8
6 6 7 7 5 5 4 4 2 3 4 3 3 3 3 3 3 5 4 5 5 6 4 6 6 4 4 3 2 3 2 1 2 4 8 13 11 11 10 9 8 8 7
6 6 6 7 6 5 4 3 3 2 3 3 3 2 3 2 2 3 2 3 3 2 3 3 2 3 2 1 1 1 1 1 2 4 7 12 11 10 9 8 8 8 7
7 7 7 6 6 4 3 2 3 3 3 4 3 2 3 2 2 2 1 1 1 2 3 2 2 2 1 1 1 2 2 2 2 3 5 10 10 9 9 8 8 7 7
7 7 6 6 5 4 2 1 2 3 3 3 3 3 3 2 2 1 2 1 1 1 2 1 1 2 2 1 1 1 2 2 2 3 4 6 8 8 8 7 7 6 6
7 7 6 7 6 3 2 1 1 2 3 3 3 3 2 2 2 1 1 1 1 1 2 2 2 1 2 2 2 1 1 1 2 2 3 3 4 6 7 6 5 6 6
7 6 3 5 7 4 2 1 2 2 3 2 2 2 2 1 1 1 1 1 1 1 1 2 1 1 1 1 1 1 1 2 2 2 2 2 2 3 4 5 5 5 5
7 6 4 4 5 4 3 1 1 2 2 2 2 2 2 1 1 1 1 1 1 0 1 1 2 1 1 1 1 1 1 2 1 2 2 2 2 3 3 4 4 3 3
7 6 5 4 4 3 2 1 1 1 1 1 2 1 2 1 1 1 1 1 1 1 1 1 1 1 1 1 1 2 1 1 1 1 1 2 2 3 3 3 3 2 4
7 6 5 4 4 2 1 1 1 1 1 1 1 2 2 1 2 2 1 1 0 1 1 1 1 0 1 1 1 1 1 1 2 1 1 1 2 2 3 3 2 2 3
8 7 6 5 5 3 2 1 1 1 1 1 1 2 1 1 1 1 1 1 1 1 1 0 1 0 1 1 1 1 1 1 1 1 2 2 2 2 3 4 3 3 2
10 8 6 5 5 3 3 2 1 1 0 1 2 1 0 1 1 2 2 2 1 1 1 0 1 0 0 1 1 1 1 1 0 1 1 2 2 2 2 2 3 3 3
11 9 7 6 5 4 2 2 2 2 1 1 1 2 1 1 1 1 2 1 1 1 1 1 2 1 1 1 0 1 1 2 2 1 0 1 2 2 2 2 3 3 4
11 10 9 7 6 4 3 2 1 1 1 1 2 2 1 1 1 1 1 1 1 2 2 2 2 1 1 1 1 0 0 1 2 2 2 1 1 2 2 2 2 3 4
11 11 10 8 6 5 4 3 2 1 1 1 1 1 1 1 1 1 2 2 2 1 1 1 1 1 1 2 1 1 0 1 0 1 2 2 2 2 2 2 2 2 3
Wind_Direction
70 66 65 71 71 73 76 79 84 88 90 94 96 96 99 102 103 107 111 115 117 116 117 119 117 114 110 109 108 109 109 110 113 116 117 117 118 119 122 124 122 112 116
83 77 71 72 74 77 80 82 86 88 89 93 95 95 98 102 104 106 110 114 116 115 115 116 117 114 111 111 113 114 116 118 122 127 126 123 121 120 118 119 111 116 120
91 90 82 73 78 82 83 85 87 90 90 93 95 96 98 102 105 107 109 112 114 114 114 116 120 119 115 115 117 118 121 128 135 142 143 129 123 120 114 112 114 121 122
94 90 86 84 83 85 84 87 90 92 92 94 97 99 102 103 105 107 111 112 113 113 113 116 120 121 118 119 122 126 133 143 154 167 166 135 125 122 119 118 120 123 122
92 92 93 92 90 90 88 89 92 93 95 100 103 103 103 103 104 108 109 108 107 107 111 114 118 122 122 123 126 136 150 167 183 200 147 119 111 128 125 123 124 125 125
101 98 97 96 95 95 93 90 93 96 97 102 105 106 107 107 108 109 110 109 105 104 104 106 111 117 120 123 129 142 171 212 235 193 128 118 118 132 131 131 132 131 129
103 104 103 101 98 95 94 94 93 95 98 103 104 107 110 112 112 112 113 113 110 107 105 106 110 115 120 124 131 149 216 265 254 142 116 112 123 135 138 138 136 135 134
106 105 108 106 104 101 98 98 97 99 102 104 108 114 116 118 116 116 115 115 114 112 110 111 116 119 120 123 129 172 266 293 237 129 116 115 134 141 142 143 144 140 140
106 111 116 119 113 110 106 104 104 105 110 111 115 122 126 126 125 125 123 120 119 119 119 120 124 126 131 139 163 224 275 301 298 116 124 124 139 141 144 147 147 147 147
102 111 121 121 120 127 121 119 118 117 119 121 122 125 131 137 137 133 130 125 125 127 130 132 132 135 144 162 196 242 276 295 228 108 113 129 141 146 146 148 150 153 155
97 101 111 116 125 129 125 126 135 132 130 130 136 140 143 150 145 145 129 133 135 138 142 145 147 154 169 195 216 248 274 253 147 117 112 132 141 143 147 151 156 161 163
97 102 99 99 109 114 112 128 146 140 137 151 127 139 147 139 131 131 133 143 147 150 156 165 170 181 202 208 207 222 244 207 126 113 122 140 145 147 150 155 160 166 171
103 92 95 89 82 82 92 120 114 119 129 134 126 130 126 124 127 123 137 147 158 168 179 173 188 203 202 199 182 190 220 134 114 106 130 141 145 151 156 162 167 174 181
106 95 86 93 79 58 60 81 103 102 109 107 108 97 99 87 82 102 127 149 162 163 170 170 183 189 194 165 149 123 72 76 96 108 136 143 149 155 158 161 170 178 186
110 103 95 89 85 79 56 25 85 93 94 101 96 83 88 103 103 110 103 108 122 144 160 178 153 130 88 67 68 90 77 74 89 113 135 148 153 160 163 167 174 183 191
114 109 108 108 101 95 98 48 53 85 96 90 91 86 90 92 93 112 135 112 118 140 131 139 130 132 138 126 98 73 76 90 104 115 128 150 156 159 165 173 181 184 190
119 118 124 126 113 103 96 68 84 94 103 100 102 93 89 99 113 126 149 156 177 159 152 147 162 147 149 152 145 139 133 113 101 108 121 142 159 167 175 181 191 191 195
123 119 125 121 123 122 104 32 38 60 90 96 103 106 106 113 123 158 127 130 187 176 159 137 133 116 129 133 124 141 137 125 131 127 131 147 153 157 168 178 188 189 197
127 126 120 98 115 121 121 122 106 88 82 87 97 107 116 108 104 107 88 55 282 115 93 131 125 140 144 138 154 152 138 131 142 136 141 135 141 144 152 161 164 162 174
132 133 131 124 113 118 116 99 71 81 98 93 89 93 97 85 64 48 98 45 4 66 57 67 90 126 159 154 132 100 111 138 127 124 148 131 126 140 137 138 144 130 122
140 142 142 136 127 127 120 124 107 111 99 107 118 97 90 63 64 67 42 103 85 95 83 90 103 193 169 136 123 134 163 121 130 130 112 97 95 97 104 114 127 129 124
147 147 147 149 146 149 141 153 172 158 175 130 87 89 85 54 30 60 62 58 74 110 95 45 90 313 222 165 180 171 159 78 50 104 121 127 105 93 101 103 101 100 108
157 161 161 151 142 150 159 170 154 116 300 98 112 116 97 89 83 37 37 32 18 90 93 108 83 325 263 224 199 182 158 133 131 61 67 88 96 94 97 96 92 86 90
162 161 150 147 147 155 172 181 183 165 156 154 136 126 119 77 65 59 49 44 21 56 69 2 75 335 305 290 221 222 152 140 152 137 60 90 104 91 89 101 96 95 90
167 161 154 151 153 158 181 182 201 178 167 138 119 116 128 124 118 71 59 54 52 58 58 27 33 21 5 3 324 327 108 157 174 160 162 156 109 90 89 94 103 100 96
166 162 157 153 158 165 179 174 168 150 81 89 119 149 193 155 116 73 67 44 59 58 47 41 350 40 28 4 340 324 242 145 172 144 156 160 137 113 100 86 89 98 102